SCP
0 0 0 0 0 0 0 0 0 0 0 0 0 0 0 0 0 0 0 0 0 0
0 0 0 0 0 0 0 0 0 0 0 0 0 0 0 0 0 0 0 0 0 0
0 0 0 0 0 0 0 0 0 0 0 0 0 0 0 0 0 0 0 0 0 0
0 0 0 0 0 0 0 0 0 0 0 0 0 0 0 0 0 0 0 0 0 0
0 0 0 0 0 0 0 0 0 0 0 0 0 0 0 0 0 0 0 0 0 0
0 0 0 0 0 0 0 0 0 0 0 0 0 0 0 0 0 0 0 0 0 0
0 0 0 0 0 0 0 0 0 0 0 0 0 0 0 0 0 0 0 0 0 0
0 0 0 0 0 0 0 0 0 0 0 0 0 0 0 0 0 0 0 0 0 0
0 0 0 0 0 0 0 0 0 0 0 0 0 0 0 0 0 0 0 0 0 0
0 0 0 0 0 0 0 0 0 0 0 0 0 0 0 0 0 0 0 0 0 0
0 0 0 0 0 0 0 0 0 0 0 0 0 0 0 0 0 0 0 0 0 0
0 0 0 0 0 0 0 0 0 0 0 0 0 0 0 0 0 0 0 0 0 0
0 0 0 0 0 0 0 0 0 0 0 0 0 0 0 0 0 0 0 0 0 0
0 0 0 0 0 0 0 0 0 0 0 0 0 0 0 0 0 0 0 0 0 0
Wind_Speed_500mb
35 31 29 24 13 12 10 6 3 4 7 11 13 14 16 18 20 22 23 25 24 25
34 31 21 22 19 11 9 7 5 5 7 9 12 14 17 18 20 22 25 25 24 24
34 25 22 20 16 12 10 7 4 4 7 10 12 14 17 19 21 22 22 23 25 26
29 26 23 18 14 12 9 6 4 4 6 10 13 16 17 19 20 21 22 23 25 27
28 24 21 17 15 11 6 4 3 5 8 11 13 15 17 19 21 23 24 25 26 29
26 23 20 17 13 9 6 3 4 7 9 11 13 16 18 21 23 24 26 29 32 34
26 24 19 15 11 7 2 3 6 8 11 14 16 18 20 22 24 27 30 32 34 35
25 21 18 13 8 3 2 5 8 11 14 17 19 20 23 25 28 30 30 32 34 36
24 21 16 10 6 5 6 8 12 15 17 20 23 25 24 26 29 31 33 35 38 41
23 17 12 10 8 8 9 12 15 19 22 24 26 28 27 27 31 34 38 42 44 46
20 17 12 11 11 10 13 16 19 22 24 26 26 29 32 36 39 41 44 46 50 51
20 16 12 12 12 14 17 19 23 25 25 27 29 34 39 42 45 47 47 49 52 54
20 16 11 15 17 17 20 23 24 26 30 32 33 36 41 46 49 51 50 49 52 51
22 18 14 21 19 20 23 26 29 31 31 31 35 39 44 47 50 52 50 51 53 53
Wind_Direction_500mb
154 153 155 141 163 165 148 120 104 37 17 18 20 15 13 12 10 9 5 4 2 359
149 157 154 149 149 136 150 139 91 39 26 26 23 14 12 9 5 4 1 358 357 354
161 158 156 146 145 158 146 109 87 54 33 21 13 9 5 360 358 357 356 353 352 350
152 155 158 147 153 153 128 110 75 45 18 11 7 359 353 351 351 348 349 350 346 345
155 157 151 156 157 143 139 129 83 13 3 358 352 345 345 340 341 342 344 345 346 346
154 154 163 164 156 162 157 122 24 354 345 339 338 335 333 330 335 339 342 344 343 340
160 166 165 166 174 174 145 5 340 331 331 330 328 328 325 329 334 336 338 335 331 331
169 169 173 184 186 192 267 318 318 320 327 323 323 321 326 326 327 326 325 325 325 328
177 179 183 193 208 253 292 305 308 319 321 320 313 317 315 314 316 318 320 321 323 328
184 187 194 214 239 256 281 303 315 317 313 308 310 313 309 315 317 317 319 321 322 323
193 200 210 233 251 281 300 305 309 307 307 309 310 314 320 321 319 317 316 315 316 316
203 208 226 261 270 281 289 303 306 306 310 318 319 319 319 314 313 311 312 313 312 311
207 214 265 276 272 284 296 297 307 319 318 316 315 313 312 313 310 307 308 305 305 309
212 223 284 265 272 286 300 310 314 309 305 310 313 314 312 308 305 305 306 306 308 310
Wind_Speed_850mb
35 31 29 24 13 12 10 6 3 4 7 11 13 14 16 18 20 22 23 25 24 25
34 31 21 22 19 11 9 7 5 5 7 9 12 14 17 18 20 22 25 25 24 24
34 25 22 20 16 12 10 7 4 4 7 10 12 14 17 19 21 22 22 23 25 26
29 26 23 18 14 12 9 6 4 4 6 10 13 16 17 19 20 21 22 23 25 27
28 24 21 17 15 11 6 4 3 5 8 11 13 15 17 19 21 23 24 25 26 29
26 23 20 17 13 9 6 3 4 7 9 11 13 16 18 21 23 24 26 29 32 34
26 24 19 15 11 7 2 3 6 8 11 14 16 18 20 22 24 27 30 32 34 35
25 21 18 13 8 3 2 5 8 11 14 17 19 20 23 25 28 30 30 32 34 36
24 21 16 10 6 5 6 8 12 15 17 20 23 25 24 26 29 31 33 35 38 41
23 17 12 10 8 8 9 12 15 19 22 24 26 28 27 27 31 34 38 42 44 46
20 17 12 11 11 10 13 16 19 22 24 26 26 29 32 36 39 41 44 46 50 51
20 16 12 12 12 14 17 19 23 25 25 27 29 34 39 42 45 47 47 49 52 54
20 16 11 15 17 17 20 23 24 26 30 32 33 36 41 46 49 51 50 49 52 51
22 18 14 21 19 20 23 26 29 31 31 31 35 39 44 47 50 52 50 51 53 53
Wind_Direction_850mb
154 153 155 141 163 165 148 120 104 37 17 18 20 15 13 12 10 9 5 4 2 359
149 157 154 149 149 136 150 139 91 39 26 26 23 14 12 9 5 4 1 358 357 354
161 158 156 146 145 158 146 109 87 54 33 21 13 9 5 360 358 357 356 353 352 350
152 155 158 147 153 153 128 110 75 45 18 11 7 359 353 351 351 348 349 350 346 345
155 157 151 156 157 143 139 129 83 13 3 358 352 345 345 340 341 342 344 345 346 346
154 154 163 164 156 162 157 122 24 354 345 339 338 335 333 330 335 339 342 344 343 340
160 166 165 166 174 174 145 5 340 331 331 330 328 328 325 329 334 336 338 335 331 331
169 169 173 184 186 192 267 318 318 320 327 323 323 321 326 326 327 326 325 325 325 328
177 179 183 193 208 253 292 305 308 319 321 320 313 317 315 314 316 318 320 321 323 328
184 187 194 214 239 256 281 303 315 317 313 308 310 313 309 315 317 317 319 321 322 323
193 200 210 233 251 281 300 305 309 307 307 309 310 314 320 321 319 317 316 315 316 316
203 208 226 261 270 281 289 303 306 306 310 318 319 319 319 314 313 311 312 313 312 311
207 214 265 276 272 284 296 297 307 319 318 316 315 313 312 313 310 307 308 305 305 309
212 223 284 265 272 286 300 310 314 309 305 310 313 314 312 308 305 305 306 306 308 310